Theta_e
341 347 349 347 344 337 334 337 342 345 342 336 337 342 338 338 339 342 339 333 336 335 341 332 334 340 328 330 333 328 329 334 336 335 334 332 331 326 329 343 346 344 331
345 349 349 348 347 346 343 342 344 345 340 337 335 336 337 341 341 341 338 327 335 336 332 329 329 327 336 340 335 333 331 330 336 339 345 341 332 333 329 343 346 341 331
347 349 348 347 346 346 346 346 345 343 339 341 342 340 339 340 342 339 331 333 342 331 330 329 326 337 337 339 340 340 340 340 342 343 346 349 339 329 334 327 327 331 330
352 347 346 345 344 343 343 343 342 339 341 339 336 332 337 339 337 334 332 343 331 333 330 332 334 335 337 340 340 342 342 346 348 350 348 349 350 344 330 329 329 328 334
349 350 341 339 339 339 339 339 338 339 345 332 327 336 343 330 333 346 332 334 334 332 333 337 338 337 337 340 340 342 341 345 348 349 349 350 349 348 340 328 336 334 337
349 349 339 339 343 339 337 338 340 337 326 326 344 343 328 324 326 331 332 335 336 338 339 335 334 337 336 339 341 342 340 341 342 347 346 350 346 349 345 335 329 329 330
351 349 337 335 339 338 343 344 338 335 332 323 342 337 344 329 330 332 331 330 331 331 332 332 332 332 334 339 339 338 339 340 341 333 340 340 339 341 343 339 337 336 330
349 346 334 338 341 343 345 343 327 334 335 322 325 331 336 335 334 332 331 330 330 330 329 328 328 330 333 335 334 334 333 335 342 343 334 342 342 342 342 341 342 342 340
349 348 340 342 341 337 334 325 322 324 329 330 331 333 335 335 335 336 339 342 338 335 336 339 338 339 341 344 342 336 342 344 347 346 345 347 341 339 343 342 342 343 342
349 349 350 344 347 328 325 327 326 327 334 337 342 342 343 342 345 344 343 340 341 336 338 341 346 349 346 347 346 346 346 345 349 346 347 344 338 333 339 343 343 341 343
346 347 351 348 346 346 330 329 332 335 338 340 347 349 349 351 351 339 335 337 338 342 342 348 350 350 348 347 344 344 344 344 346 348 347 343 332 331 333 339 341 342 343
348 348 350 348 346 341 339 331 335 339 344 342 349 351 350 349 345 347 339 345 349 347 337 347 347 347 346 346 344 341 341 342 342 345 345 342 333 332 331 333 336 334 339
347 350 348 346 344 342 341 339 346 349 351 348 351 351 347 346 350 351 349 349 350 349 346 347 347 345 343 341 342 340 340 341 340 342 343 342 339 335 334 332 333 332 336
347 347 346 347 344 345 344 349 348 351 349 348 339 346 345 349 350 352 351 348 353 345 349 348 345 342 344 346 347 346 342 340 343 342 342 342 341 338 336 337 336 334 334
346 346 347 347 346 349 347 351 348 348 350 350 343 344 348 345 346 347 346 347 349 349 349 350 344 348 352 349 349 348 344 341 341 340 343 343 343 342 340 337 337 337 336
345 346 348 347 348 350 352 351 353 347 351 348 351 348 352 353 345 349 350 351 350 349 342 349 350 349 352 349 347 347 344 343 342 339 342 344 343 341 340 338 336 336 336
345 347 348 348 349 348 356 351 350 351 345 350 351 351 346 353 345 351 352 348 352 345 350 350 351 351 350 348 349 341 343 344 343 341 341 340 343 342 340 338 337 335 335
345 348 350 349 349 349 353 348 350 345 348 348 347 348 341 348 344 347 347 351 353 352 352 347 352 353 347 350 348 343 342 341 342 341 342 341 341 339 339 338 337 336 333
344 349 350 349 349 350 350 346 351 351 349 347 347 348 350 341 346 342 350 352 351 345 350 351 354 350 345 352 349 342 341 338 339 342 342 343 342 340 338 339 338 334 333
345 348 350 349 349 349 349 353 350 352 346 349 349 349 352 349 350 351 345 350 348 343 351 351 352 347 350 352 350 341 343 342 343 343 343 343 342 340 338 338 336 334 330
345 347 350 349 348 348 349 348 352 351 351 348 349 348 352 349 351 351 342 351 352 350 350 350 349 343 346 350 350 339 339 343 344 343 343 342 342 339 340 338 338 333 334
346 346 349 349 347 347 345 346 351 351 351 347 348 349 349 346 347 352 347 345 351 350 350 350 352 349 342 352 351 344 338 340 341 344 344 345 344 342 342 340 339 338 334
346 346 348 348 347 345 344 349 350 351 351 352 350 349 350 350 346 353 353 353 347 349 349 350 352 350 348 345 349 345 341 340 344 346 345 344 344 345 343 341 338 339 333
346 347 348 347 346 342 344 349 349 350 350 352 351 349 350 352 352 350 349 349 343 341 347 351 352 352 349 346 348 345 339 340 347 347 346 344 345 344 344 341 338 338 334
347 348 347 348 347 346 340 350 349 350 349 351 351 351 351 352 354 355 353 353 344 340 339 340 346 343 348 349 347 347 348 342 341 345 348 345 343 343 343 342 340 336 333
350 347 347 349 348 346 346 341 351 350 349 353 352 353 355 353 353 353 352 350 346 341 340 342 338 336 339 340 344 346 348 346 346 345 345 347 346 343 343 339 341 334 333
Wind_Speed
18 11 9 12 13 13 12 13 11 11 11 11 12 12 12 11 11 12 12 11 11 11 10 10 11 11 12 13 12 11 10 10 10 10 11 11 10 9 8 9 6 4 4
19 12 11 12 12 11 11 10 9 9 8 9 11 10 11 10 11 11 11 11 11 11 10 10 10 12 14 12 12 12 12 12 12 8 6 11 15 10 6 5 9 2 4
17 12 13 14 12 11 10 9 8 7 7 8 10 11 11 11 11 9 10 12 10 10 10 11 11 13 12 13 11 11 13 14 12 6 3 3 10 14 6 3 2 3 4
14 12 13 13 11 11 11 10 8 7 6 7 8 9 9 9 9 10 12 11 10 11 10 11 11 9 7 7 8 8 12 11 8 3 3 3 7 10 10 3 5 5 6
14 16 13 14 12 12 11 9 7 8 9 8 9 10 10 8 10 11 10 11 11 10 9 9 8 7 7 6 5 5 6 7 6 3 6 8 6 6 10 6 3 6 5
22 16 11 14 13 11 9 7 7 8 7 9 10 10 8 9 10 10 10 9 9 9 8 7 6 5 5 4 4 4 3 3 7 12 8 11 2 5 7 5 4 3 4
22 15 16 14 12 11 9 9 8 9 8 10 11 10 10 10 11 9 9 8 8 8 7 6 5 5 5 5 5 6 4 6 9 12 23 10 10 5 1 2 3 3 4
17 16 16 15 12 12 10 8 7 10 8 10 10 10 9 9 8 7 7 7 7 7 7 7 8 10 10 9 8 6 7 3 7 10 16 8 9 8 1 0 1 2 2
18 15 17 14 13 11 9 8 9 10 11 11 11 11 11 11 10 9 8 10 9 10 10 11 11 12 13 14 15 11 7 5 9 6 8 9 9 9 4 5 4 2 2
20 16 14 11 11 10 11 11 12 12 12 13 14 14 15 13 12 10 9 11 12 16 19 18 14 11 15 13 15 14 12 11 13 7 2 8 11 10 6 4 4 5 4
17 17 11 11 10 7 11 12 12 13 12 14 14 13 10 5 10 13 14 15 19 16 8 8 10 9 15 10 14 15 15 17 18 5 5 12 16 11 7 5 5 5 5
18 16 16 13 14 10 10 11 13 13 11 11 6 1 7 5 11 9 16 14 16 10 8 13 13 12 17 11 15 16 18 14 13 5 6 13 13 10 9 5 4 5 4
18 17 17 15 11 15 9 12 10 9 7 1 5 4 7 7 2 2 6 5 6 6 11 11 13 11 7 9 10 8 12 10 8 9 10 10 13 9 8 7 6 6 5
19 17 17 17 15 16 9 12 3 10 6 3 3 9 10 8 3 5 6 3 4 7 11 10 8 7 4 6 7 10 11 12 9 7 9 11 13 11 8 7 6 5 4
20 19 19 19 21 14 14 10 9 11 10 6 2 6 9 8 6 7 3 5 8 8 7 7 6 6 9 12 12 13 12 12 11 7 13 9 12 14 13 10 10 9 7
21 19 20 18 22 16 13 13 9 8 3 5 4 3 3 7 5 3 1 2 4 2 5 6 12 10 11 10 9 10 13 13 13 13 7 11 12 12 10 10 10 10 11
22 20 20 18 24 24 12 17 15 7 6 6 8 7 11 1 7 5 2 1 2 6 9 9 11 8 9 13 14 12 13 14 13 15 8 9 11 11 9 7 7 10 9
23 22 20 17 19 23 15 19 16 7 8 7 9 8 3 11 10 8 3 5 5 1 5 9 5 11 9 13 16 17 21 21 8 9 8 14 8 9 13 14 13 11 9
24 24 22 20 18 19 18 16 13 9 12 10 8 11 8 4 5 8 4 6 8 8 3 8 6 12 16 12 11 12 16 16 2 3 10 10 10 10 12 12 13 14 9
25 25 23 23 20 19 18 17 15 11 16 9 7 9 9 5 7 11 8 8 14 9 10 12 13 16 12 14 17 13 12 13 11 7 5 4 11 16 11 15 20 18 9
27 28 28 26 24 23 22 22 17 13 10 10 9 11 8 8 11 12 9 5 13 7 10 17 17 15 10 14 16 14 10 8 10 10 8 10 14 10 15 16 15 10 14
31 30 32 30 29 27 25 20 17 15 17 11 12 16 18 16 14 11 9 10 12 13 15 18 17 16 12 15 17 15 7 3 15 7 11 12 12 13 12 15 4 19 15
33 35 34 34 34 31 26 22 20 18 19 16 16 18 18 16 15 13 14 15 14 17 16 14 18 19 18 15 17 11 7 8 20 7 10 13 17 16 17 14 17 11 13
36 36 35 34 34 31 29 24 25 26 21 18 16 18 17 19 18 15 18 19 19 18 13 16 19 22 20 20 20 11 11 14 18 15 14 20 17 16 20 19 10 10 12
36 37 36 34 34 31 30 29 25 26 23 19 17 17 19 17 16 15 17 17 18 17 18 16 20 24 22 22 21 23 23 18 17 18 25 23 22 16 15 17 10 8 6
37 37 36 36 35 34 30 33 29 28 25 20 20 21 17 17 19 18 16 15 16 18 18 16 20 21 21 22 24 24 24 20 20 23 26 26 20 15 17 20 17 10 8
Wind_Direction
150 136 126 126 124 127 128 123 116 100 90 89 94 93 97 94 91 94 92 94 96 102 101 94 100 94 99 94 86 91 101 101 104 106 89 70 58 65 95 95 91 80 63
149 142 132 126 128 135 131 131 123 100 91 97 98 95 93 93 94 99 91 92 97 102 102 99 105 102 97 94 88 90 88 90 93 102 89 83 60 49 89 98 95 83 68
142 137 130 124 121 128 138 144 133 117 110 105 101 98 97 103 99 96 95 104 100 93 97 102 105 110 91 94 90 85 80 94 92 89 89 98 65 48 38 88 86 88 92
135 139 141 135 134 130 132 137 136 129 117 112 106 113 110 109 103 100 97 98 95 97 101 105 101 100 91 93 78 71 87 95 81 39 333 320 159 36 15 45 102 111 110
148 145 146 141 141 135 132 134 137 130 117 107 115 116 117 113 113 103 103 105 100 97 98 99 101 95 87 90 73 63 91 90 77 48 68 26 168 1 10 23 73 79 81
153 178 162 145 141 137 134 143 139 134 130 129 118 117 104 111 114 109 105 95 91 91 90 86 81 73 81 79 58 35 32 38 351 337 356 123 161 330 340 25 52 63 77
149 169 170 156 145 139 139 134 133 125 124 135 133 122 108 107 108 106 100 95 89 83 78 73 59 51 49 40 25 14 5 1 336 350 8 15 347 8 313 42 61 61 63
144 146 166 155 145 144 145 146 140 140 127 124 131 124 115 106 100 95 85 73 67 64 59 61 65 62 54 42 28 17 27 1 16 8 42 46 58 28 166 133 36 37 70
140 161 158 150 148 152 151 144 140 143 126 117 111 105 97 92 88 80 74 62 61 69 68 63 71 77 66 54 49 51 53 348 320 2 27 53 49 6 344 285 272 327 10
144 148 154 148 142 147 150 145 140 131 121 110 103 102 94 98 72 60 69 63 73 76 82 82 72 59 41 47 40 28 9 350 310 329 42 52 20 350 344 351 321 298 339
144 147 164 135 142 176 149 148 133 125 114 112 103 91 77 126 102 54 65 88 88 80 74 81 53 28 6 25 29 21 13 5 349 136 72 21 358 354 357 346 339 298 296
153 159 158 159 160 154 148 142 122 116 106 124 109 104 75 48 81 88 83 92 78 71 72 61 46 31 19 5 3 14 6 358 22 29 7 352 350 5 9 1 354 343 315
164 154 158 169 169 141 165 117 101 118 101 83 159 83 112 154 90 172 54 29 79 60 45 67 41 42 46 40 5 27 28 17 11 355 326 336 346 2 16 17 10 5 355
168 164 163 172 155 168 157 138 156 144 166 216 96 116 164 106 59 76 153 173 204 57 41 25 12 28 67 27 12 2 26 14 12 352 330 324 340 349 349 3 5 356 350
168 171 171 185 155 178 168 169 175 165 211 201 156 189 111 130 148 88 86 77 89 102 78 359 352 355 37 1 359 356 8 360 351 34 335 323 331 343 347 335 335 323 314
172 172 184 193 160 172 161 183 156 175 162 112 222 180 157 159 173 124 61 114 97 12 328 341 353 11 18 337 340 342 352 345 338 338 351 340 341 336 327 335 314 313 317
177 175 189 187 173 170 165 186 159 162 204 160 194 247 190 151 200 155 53 157 213 328 16 350 331 3 333 325 347 359 342 332 345 331 10 352 341 334 326 318 312 303 292
179 181 186 179 185 177 165 180 159 181 184 193 228 272 252 192 194 166 137 297 253 337 304 345 279 317 337 347 350 348 328 322 296 332 301 311 302 340 330 324 322 319 306
182 184 188 181 206 191 176 179 171 197 196 202 216 245 262 278 210 199 180 308 273 268 351 304 283 315 344 351 343 347 20 28 298 278 303 319 298 300 324 314 314 321 313
189 188 189 184 205 204 192 181 179 203 200 193 208 234 238 252 220 245 195 272 290 285 302 275 280 312 343 316 320 357 340 8 46 43 354 326 297 302 298 280 305 303 314
191 193 191 190 199 209 196 193 190 197 202 213 212 231 238 236 239 245 215 264 298 327 296 279 299 304 299 301 321 357 344 340 23 328 309 278 283 323 321 316 332 294 317
193 199 195 196 199 210 201 204 190 203 212 214 220 233 250 267 224 247 257 226 233 257 264 291 298 301 303 312 314 334 338 4 297 26 333 325 320 294 319 281 302 295 313
197 201 204 199 203 209 205 197 200 210 217 222 224 235 251 266 253 239 245 254 254 258 259 294 292 293 301 291 306 329 344 329 336 315 331 336 328 314 325 313 310 278 294
197 205 210 207 205 211 199 204 201 206 216 219 215 234 249 262 274 273 250 255 265 269 265 265 277 286 290 299 301 301 305 330 315 322 316 334 331 314 318 331 330 266 288
198 201 212 213 209 211 206 196 212 214 216 212 227 229 241 247 262 271 266 262 268 273 274 266 269 287 294 297 296 302 309 317 316 310 308 321 325 321 319 317 307 282 265
202 200 206 213 215 213 215 206 203 224 215 223 224 233 239 247 262 273 276 269 287 280 274 273 273 279 284 284 290 298 305 309 319 315 314 314 329 347 337 327 288 320 270